Location: Acton
(51.4942°N, 0.2232°W)
Time: 12:27:18
(UTC+00:00)

Okean 1-7 Rocket - Pass Details

Date: 21 January 2021
Orbit: 615 x 650 km, 82.5° (Epoch: 28 February)

Event Time Altitude Azimuth Distance (km) Brightness Sun altitude
Exits shadow 03:46:00 15° 60° (ENE) 1,715 6.4 -37.9°
Maximum altitude 03:46:01 15° 61° (ENE) 1,715 6.4 -37.9°
Drops below altitude 10° 03:48:43 10° 97° (E) 2,040 6.8 -37.5°
Sets 03:51:49 0° 121° (ESE) 2,937 7.5 -37.1°
